Regional Weather Roundup
Issued by NWS Bismarck, ND

Home | Current Version | Previous Version | Text Only | Print | Product List | Glossary On
Versions: 1 2 3 4 5 6 7 8 9 10 11 12 13 14 15 16 17 18 19 20 21 22 23 24 25 26 27 28 29 30 31 32 33 34 35 36 37 38 39 40 41 42 43 44 45 46 47 48 49 50
000
ASUS43 KBIS 230310
RWRBIS

NWR BROADCAST TEXT
NATIONAL WEATHER SERVICE BISMARCK ND
1000 PM CDT TUE MAY 22 2018

NOTE: "FAIR" INDICATES FEW OR NO CLOUDS BELOW 12,000 FEET WITH NO
SIGNIFICANT WEATHER AND/OR OBSTRUCTIONS TO VISIBILITY.


CITY           SKY/WX    TMP DP  RH WIND       PRES   REMARKS
WILLISTON      MOCLDY    68  50  52 NE13      29.93R
MINOT          CLOUDY    71  51  49 N6        29.93R
MINOT AFB      CLOUDY    72  52  49 NE8       29.91R
BISMARCK       TSTM      66  60  81 NW8       29.96R
DICKINSON      CLOUDY    66  55  67 S12       29.91R
GARRISON         N/A     69  54  58 S10       29.94R
HETTINGER ARPT CLOUDY    63  50  62 E17       29.95R
JAMESTOWN      CLOUDY    70  57  63 E8        29.95R
CARRINGTON     FAIR      73  57  56 S9        29.98R
HAZEN          MOCLDY    66  59  77 SE20G26   29.95R
LINTON         MOCLDY   N/A N/A N/A E9        29.96R
MANDAN           N/A     64  64 100 NW10      29.98R THUNDER
OAKES            N/A     68  54  60 E10       29.96R
STANLEY          N/A     66  54  63 N8        29.97R
TIOGA          MOCLDY    64  54  68 E8        29.96R
WATFORD CITY   FAIR      68  48  49 NE8       29.92R
$$

CITY           SKY/WX    TMP DP  RH WIND       PRES   REMARKS
GRAND FORKS    FAIR      70  55  59 SE8       29.95R
GRAND FORKS AF FAIR      69  53  55 SE7       29.96R
DEVILS LAKE    FAIR      70  54  56 E8        29.96R
FARGO          FAIR      73  56  54 E13       29.96R
CANDO          FAIR      68  50  52 SE8       29.97R
CAVALIER         N/A     73  54  49 SE5       29.95R
GRAFTON        FAIR      68  54  60 E10       29.98R
GWINNER          N/A     68  52  56 SE7       29.96R
LANGDON        FAIR      66  52  59 SE9       29.98R
ROLLA          FAIR      68  50  52 SE8       29.97R
WALHALLA       FAIR      68  55  64 SE6       29.95R
$$

CITY           SKY/WX    TMP DP  RH WIND       PRES   REMARKS
ABERDEEN       MOCLDY    71  52  50 E7        29.94R
MOBRIDGE       MOCLDY    70  60  70 SE6       29.91R
BUFFALO          N/A     68  58  70 E9        29.89R
RAPID CITY     RAIN      59  57  93 SW7       30.02R
GLASGOW        MOCLDY    72  49  44 E3        29.91R
SIDNEY         MOCLDY    68  56  65 N5        29.91R
WOLF POINT     PTCLDY    63  54  72 MISG      29.91R
GLENDIVE       MOCLDY    66  56  70 N7        29.92S
MILES CITY     MOCLDY    68  57  68 NE8       29.91R
BAKER          CLOUDY    67  58  72 N8        29.93R
$$

CITY           SKY/WX    TMP DP  RH WIND       PRES   REMARKS
BILLINGS       TSTM      63  51  65 N17G26    29.94S
GREAT FALLS    MOCLDY    63  53  70 NW5       29.97S
REGINA         PTCLDY    64  52  63 E7        29.95R
ESTEVAN        MOCLDY    59  52  77 NE9       29.93F
$$




USA.gov is the U.S. government's official web portal to all federal, state and local government web resources and services.